www.pogodaiklimat.ru

Погода и климат >> Архив погоды >> Украина >> Барышевка


ПОГОДА в Барышевке

  • Прогноз погоды в Барышевке
  • Монитор погоды в Барышевке

АРХИВ ПОГОДЫ в Барышевке

Время (UTC), дата Ветер
(напр.,м/с)
 
Видим.   Явления Облачность Т
(С)
Тd
(С)
f
(%)
Тe
(С)
Тes
(С)
Комфортность P
(гПа)
Po
(гПа)
Тmin
(С)
Tmax
(С)
R
(мм)
R24
(мм)
S
(см)
03 9.06 штиль 0 4000 м туман поземный 3/0
[Ci fib]
+16.7 +15.7 94 +17 +17 1021.2 1006.9
06 9.06 С 1 10 км 3/0
[Ac trans]
+23.8 +18.9 74 +29 +36 душно 1021.7 1007.7 +15.9
09 9.06 СВ 2 20 км 4/4 1000 м
[Cu med, cong]
+27.2 +16.9 53 +31 +41 душно 1021.6 1007.7
12 9.06 СЗ 4 4000 м гроза, ливневой дождь 10/10 600 м
[Cb calv]
+21.3 +18.4 84 +26 +26 душно 1021.4 1007.3
15 9.06 штиль 0 10 км {гроза, ливн. осадки} 8/0
[Ci sp]
+23.1 +19.2 79 +29 +34 очень
душно
1020.0 1006.0
18 9.06 штиль 0 4000 м дымка {гроза, ливн. осадки} 8/4 600 м
[Sc Ac und]
+21.2 +20.1 93 +26 +26 душно 1021.4 1007.3 +28.5 4
21 9.06 штиль 0 2000 м туман поземный ясно +17.5 +17.2 98 +17 +17 1021.2 1006.9
00 10.06 С 1 2000 м дымка ясно +16.7 +15.5 93 +18 +18 1021.1 1006.8
03 10.06 СВ 1 4000 м дымка 8/0
[Ac und]
+17.0 +15.6 91 +18 +18 1021.0 1006.7
06 10.06 В 1 10 км 3/0
[Ac und]
+23.2 +18.4 74 +29 +37 душно 1020.8 1006.8 +15.8
12 10.06 ЮВ 2 20 км 4/3 600 м
[Cu hum As op]
+30.4 +13.8 36 +32 +41 жарко 1019.3 1005.6
15 10.06 СВ 1 20 км 6/3 600 м
[Cu hum Ac und]
+30.2 +13.1 35 +31 +34 жарко 1018.8 1005.1
18 10.06 В 2 10 км 8/0
[Ac lent Cc]
+24.2 +14.4 54 +27 +27 жарко 1019.1 1005.1 +30.4
21 10.06 В 2 10 км ясно +20.7 +14.7 68 +24 +24 комфорт 1019.1 1005.0
00 11.06 С 1 10 км ясно +19.8 +15.2 75 +23 +23 комфорт 1018.8 1004.6
03 11.06 штиль 0 10 км ясно +17.9 +15.7 87 +18 +19 1019.1 1004.8
06 11.06 В 2 10 км ясно +24.4 +18.4 69 +29 +37 душно 1019.4 1005.4 +17.2
09 11.06 В 3 20 км ясно +28.0 +17.9 54 +32 +47 душно 1018.8 1005.0
12 11.06 В 4 20 км 3/3 1000 м
[Cu med, cong]
+29.6 +16.1 44 +33 +39 душно 1017.6 1003.9
15 11.06 СВ 4 20 км 3/3 1000 м
[Cu med, cong]
+30.0 +15.0 40 +32 +34 жарко 1016.8 1003.1
18 11.06 СВ 3 10 км 4/0
[Ac lent Ci]
+26.0 +17.7 60 +30 +30 душно 1017.2 1003.4 +30.6
21 11.06 В 3 10 км ясно +22.4 +17.9 76 +27 +27 душно 1017.6 1003.6
00 12.06 СВ 2 10 км ясно +21.2 +16.9 76 +25 +25 комфорт 1016.9 1002.8
06 12.06 С 2 10 км ясно +25.8 +18.6 64 +31 +39 очень
душно
1017.0 1003.1 +18.9
09 12.06 В 3 20 км 3/3 1000 м
[Cu med, cong]
+29.6 +17.9 49 +34 +44 очень
душно
1016.4 1002.7
12 12.06 СВ 3 20 км 4/4 1000 м
[Cu hum]
+29.6 +14.9 41 +32 +39 душно 1015.3 1001.6
15 12.06 В 3 20 км 3/3 1000 м
[Cu hum]
+30.3 +15.4 40 +33 +35 душно 1014.4 1000.8
18 12.06 СВ 1 10 км ясно +25.4 +18.3 65 +30 +30 душно 1014.8 1001.0 +30.9
21 12.06 СВ 1 4000 м дымка ясно +18.6 +17.6 94 +21 +21 комфорт 1016.1 1001.9
00 13.06 В 1 10 км 8/0
[Cs]
+19.7 +16.2 80 +23 +23 комфорт 1016.0 1001.9
03 13.06 СВ 1 10 км 8/0
[Cs]
+19.7 +17.6 88 +23 +24 комфорт 1016.1 1002.0
06 13.06 В 3 10 км 4/0
[Cs]
+27.0 +16.3 52 +30 +37 душно 1016.9 1003.1 +17.9
09 13.06 В 3 10 км 6/0
[Ci fib]
+29.5 +16.2 45 +33 +45 душно 1017.5 1003.8
12 13.06 В 3 10 км 9/0
[Ac und]
+30.0 +17.0 46 +34 +38 очень
душно
1017.3 1003.6
18 13.06 СВ 1 10 км 8/3 1000 м
[Cu med, cong Ci sp]
+26.3 +19.0 64 +31 +31 душно 1017.5 1003.7 +30.6
00 14.06 Ю 2 10 км 3/0
[Cc]
+21.8 +17.6 77 +26 +26 душно 1019.6 1005.5
06 14.06 С 1 10 км 3/0
[Ci fib]
+24.2 +17.6 67 +28 +37 душно 1019.6 1005.6 +17.3
12 14.06 ЮЗ 1 10 км 6/0
[Ac und Ci]
+30.0 +18.9 51 +35 +47 очень
душно
1018.4 1004.7
18 14.06 З 1 10 км 8/0
[Cs]
+24.7 +20.2 76 +30 +30 очень
душно
1017.1 1003.2 +31.0
00 15.06 штиль 0 4000 м дымка ясно +19.0 +17.5 91 +20 +20 1016.9 1002.7
06 15.06 СЗ 1 10 км ясно +25.2 +19.6 71 +31 +40 очень
душно
1015.7 1001.8 +16.5
18 15.06 С 2 10 км ясно +25.4 +17.6 62 +30 +30 душно 1013.4 999.6 +32.8

 

Местоположение метеостанции Барышевка (Киевская область, Украина): широта 50.37 долгота 31.33 высота над уровнем моря 120 м.

В архиве по умолчанию представлена погода в Барышевке за последнюю неделю. Архивные данные за месяц целиком и за предыдущие месяцы, начиная с января 2011 года, Вы можете получить, выбрав интересующий диапазон дат из раскрывающегося списка и нажав кнопку "Ввод!".


*Определитесь, кто Вы:
робот инопланетянин человек

Внимание! Время в таблицах - всемирное. Для получения местного времени необходимо прибавить поправку, которая равна 2 ч.

Смотрите также архив погоды в соседних городах и на ближайших метеорологических станциях:

Погода в Борисполе (Киевская область, Украина) (26 км)
Погода в Яготине (Киевская область, Украина) (37 км)
Погода в Киеве (город Киев, Украина) (54 км)
Погода в Вышгороде (Киевская область, Украина) (65 км)
Погода в Остере (Черниговская область, Украина) (72 км)
Погода в Каневе (Черкасская область, Украина) (72 км)
Погода в Прилуках (Черниговская область, Украина) (78 км)
Погода в Мироновке (Киевская область, Украина) (81 км)
Погода в Нежине (Черниговская область, Украина) (86 км)
Погода в Золотоноше (Черкасская область, Украина) (92 км)

Пояснения к столбцам:

Ветер - указаны скорость ветра в м/с - средняя за 10 мин, порывы в срок и между сроками (в фигурных скобках) и направление, откуда дует ветер: С - северный, СВ - северо-восточный, В - восточный, ЮВ - юго-восточный, Ю - южный, ЮЗ - юго-западный, З - западный, СЗ - северо-западный.
Видимость - горизонтальная дальность видимости в метрах или километрах. При видимости от 1 до 10 км при отсутствии осадков обычно наблюдается дымка, при ухудшении видимости до 1 км и менее - туман. В сухую погоду видимость может ухудшаться дымом, пылью или мглою.
Явления - указаны атмосферные явления, наблюдавшиеся в срок или в последний час перед сроком; фигурными скобками обозначены явления, наблюдавшиеся между сроками (за 1-3 часа до срока); квадратными скобками обозначены град или гололедные отложения с указанием их диаметра в мм.
Облачность - указаны через наклонную черту общая и нижняя облачность в баллах и высота нижней границы облаков в метрах; квадратными скобками обозначены формы облаков: Ci - перистые, Cs - перисто-слоистые, Cc - перисто-кучевые, Ac - высококучевые, As - высокослоистые, Sc - слоисто-кучевые, Ns - слоисто-дождевые, Cu - кучевые, Cb - кучево-дождевые. Подробнее классификацию облаков см. в Атласе облаков (PDF).
T - Температура воздуха - температура, измеренная на высоте 2 м над землей.
Td - Температура точки росы - температура, при понижении до которой содержащийся в воздухе водяной пар достигнет насыщения.
f - Относительная влажность воздуха - влажноcть воздуха, измеренная на высоте 2 м над землей.
Te - Эффективная температура - температура, которую ощущает одетый по сезону человек в тени. Характеристика душности погоды. При расчете учитывается влияние влажности воздуха и скорости ветра на теплоощущения человека.
Tes - Эффективная температура на солнце - температура, которую ощущает человек, с поправкой на солнечный нагрев. Характеристика знойности погоды. Зависит от высоты солнца над горизонтом, облачности и скорости ветра. Ночью, в пасмурную погоду, а также при ветре 12 м/с и более поправка равна нулю.
P - Атмосферное давление - приведенное к уровню моря атмосферное давление.
Po - Атмосферное давление - измеренное на уровне метеостанции атмосферное давление.
Tmin - Минимальная температура - минимум температуры воздуха на высоте 2 м над землей.
Tmax - Максимальная температура - максимум температуры воздуха на высоте 2 м над землей.
R - Количество осадков - Количество выпавших осадков за период времени, мм. При наведении курсора мыши на число - период времени, за который выпало указанное количество осадков.
R24 - Количество осадков - Количество выпавших осадков за 24 часа, мм.
S - Снежный покров - Высота снежного покрова, см. При наведении курсора мыши на число - состояние снежного покрова и степень покрытия местности в баллах.